This is the latest recevied weather packets stored in our database for station/object W6ORV. If no packets are shown the sender has not sent any weather packets the latest 10 day(s).
| Time | Temp. | Humidity | Pressure | Rain* | Wind** | Luminosity | Snow |
|---|---|---|---|---|---|---|---|
| 1778133366 | 13.89° C | 81% | 4303.4 hPa | 0 mm | - | 0 W/m² | - |
| 1778133062 | 13.89° C | 80% | 4303.5 hPa | 0 mm | - | 0 W/m² | - |
| 1778132759 | 13.89° C | 80% | 4303.4 hPa | 0 mm | - | 0 W/m² | - |
| 1778132456 | 13.89° C | 80% | 4303.1 hPa | 0 mm | - | 0 W/m² | - |
| 1778132154 | 14.44° C | 79% | 4303.2 hPa | 0 mm | - | 0 W/m² | - |
| 1778131852 | 14.44° C | 78% | 4303.5 hPa | 0 mm | - | 0 W/m² | - |
| 1778131549 | 14.44° C | 77% | 4303.1 hPa | 0 mm | - | 0 W/m² | - |
| 1778131246 | 15° C | 77% | 4303.2 hPa | 0 mm | - | 0 W/m² | - |
| 1778130944 | 15° C | 76% | 4303.1 hPa | 0 mm | - | 0 W/m² | - |
| 1778130640 | 15° C | 76% | 4303.2 hPa | 0 mm | - | 0 W/m² | - |
| 1778130337 | 15° C | 75% | 4303.4 hPa | 0 mm | - | 0 W/m² | - |
| 1778130033 | 15.56° C | 75% | 4303.1 hPa | 0 mm | - | 0 W/m² | - |
| 1778129730 | 15.56° C | 74% | 4303.3 hPa | 0 mm | - | 0 W/m² | - |
| 1778129427 | 15.56° C | 74% | 4303.1 hPa | 0 mm | - | 0 W/m² | - |
| 1778129124 | 15.56° C | 74% | 4302.9 hPa | 0 mm | - | 0 W/m² | - |
| 1778128821 | 16.11° C | 73% | 4303 hPa | 0 mm | - | 0 W/m² | - |
| 1778128517 | 16.11° C | 73% | 4302.9 hPa | 0 mm | - | 0 W/m² | - |
| 1778128214 | 15.56° C | 73% | 4302.9 hPa | 0 mm | - | 0 W/m² | - |
| 1778127910 | 16.11° C | 72% | 4302.7 hPa | 0 mm | - | 0 W/m² | - |
| 1778127606 | 16.11° C | 71% | 4302.9 hPa | 0 mm | - | 0 W/m² | - |
| 1778127303 | 16.67° C | 71% | 4302.7 hPa | 0 mm | - | 0 W/m² | - |
| 1778127000 | 16.67° C | 70% | 4302.5 hPa | 0 mm | - | 0 W/m² | - |
| 1778126695 | 17.22° C | 69% | 4302.5 hPa | 0 mm | - | 0 W/m² | - |
| 1778126391 | 16.67° C | 70% | 4302.5 hPa | 0 mm | - | 0 W/m² | - |
| 1778126088 | 17.22° C | 69% | 4302.4 hPa | 0 mm | - | 0 W/m² | - |
* Rain latest hour (hover to see other rain measurements)
** Current wind speed in m/s (hover to see current wind gust speed)